Napa County, CA

4:06 AM PST on November 24, 2017 (GMT -0800)
Napa County

Weather History for KAPC - November, 2011

Change the Weather History Date:

Tuesday, November 22, 2011

  Actual Average Record
Temperature  
Mean Temperature 50 °F 50 °F  
Max Temperature 62 °F 61 °F 74 °F (2005)
Min Temperature 37 °F 38 °F 26 °F (2003)
Degree Days  
Heating Degree Days 15    
Month to date heating degree days 322  
Since 1 July heating degree days 540  
Cooling Degree Days 0    
Month to date cooling degree days 0  
Year to date cooling degree days 175  
Moisture  
Dew Point 41 °F    
Average Humidity 78    
Maximum Humidity 100    
Minimum Humidity 55    
Precipitation  
Precipitation 0.00 in - 1.40 in (1977)
Month to date precipitation 1.94  
Year to date precipitation 18.98  
Since 1 July precipitation 3.13  
Sea Level Pressure  
Sea Level Pressure 30.20 in    
Wind  
Wind Speed 3 mph (East)    
Max Wind Speed 10 mph    
Max Gust Speed 14 mph    
Visibility 8 miles    
Events Fog    
T = Trace of Precipitation, MM = Missing Value Source: NWS Daily Summary

Daily Weather History Graph

Daily Weather History Graph

Search for Another Location

Airport or City:

Trip Planner

Search our weather history database for the weather conditions in past years. The results will help you decide how hot, cold, wet, or windy it might be!

Date:

Astronomy

Nov. 22, 2011 Rise Set
Actual Time 6:57 AM PST 4:52 PM PST
Civil Twilight 6:28 AM PST 5:21 PM PST
Nautical Twilight 5:56 AM PST 5:53 PM PST
Astronomical Twilight 5:25 AM PST 6:24 PM PST
Moon 3:56 AM PST (11/22) 2:54 PM PST (11/22)
Length of Visible Light 10h 52m
Length of Day
9h 54m
Waning Crescent, 9% of the Moon is Illuminated
Nov 22
Waning Crescent
Nov 24
New
Dec 2
First Quarter
Dec 10
Full
Dec 17
Last Quarter

Hourly Weather History & Observations

Time (PST) Temp. Windchill Dew Point Humidity Pressure Visibility Wind Dir Wind Speed Gust Speed Precip Events Conditions
12:54 AM 41.0 °F - 39.0 °F 93% 30.24 in 10.0 mi Calm Calm - N/A   Overcast
1:54 AM 43.0 °F 41.3 °F 41.0 °F 93% 30.25 in 9.0 mi NNE 3.5 mph - N/A   Partly Cloudy
2:16 AM 41.0 °F - 39.2 °F 93% 30.27 in 1.5 mi Calm Calm - N/A   Clear
2:21 AM 41.0 °F 39.0 °F 39.2 °F 93% 30.27 in 0.5 mi ESE 3.5 mph - N/A Fog Fog
2:31 AM 39.2 °F - 37.4 °F 93% 30.27 in 1.0 mi Calm Calm - N/A   Clear
2:54 AM 39.9 °F - 37.9 °F 93% 30.24 in 4.0 mi Calm Calm - N/A   Clear
3:10 AM 39.2 °F - 37.4 °F 93% 30.27 in 1.0 mi Calm Calm - N/A   Mist
3:26 AM 39.2 °F 35.9 °F 37.4 °F 93% 30.27 in 2.0 mi North 4.6 mph - N/A   Partly Cloudy
3:54 AM 39.9 °F - 39.0 °F 97% 30.24 in 6.0 mi Calm Calm - N/A   Clear
4:08 AM 39.2 °F - 37.4 °F 93% 30.26 in 1.8 mi Calm Calm - N/A   Partly Cloudy
4:19 AM 39.2 °F 37.0 °F 37.4 °F 93% 30.26 in 4.0 mi North 3.5 mph - N/A   Mostly Cloudy
4:54 AM 44.1 °F - 41.0 °F 89% 30.24 in 9.0 mi Calm Calm - N/A   Overcast
5:54 AM 45.0 °F 42.6 °F 43.0 °F 93% 30.23 in 9.0 mi NNW 4.6 mph - N/A   Overcast
6:54 AM 46.0 °F - 44.1 °F 93% 30.24 in 10.0 mi Calm Calm - N/A   Overcast
7:54 AM 48.0 °F - 46.0 °F 93% 30.25 in 7.0 mi Calm Calm - N/A   Overcast
8:54 AM 51.1 °F - 46.9 °F 86% 30.25 in 10.0 mi Calm Calm - N/A   Overcast
9:54 AM 55.9 °F - 48.0 °F 75% 30.25 in 10.0 mi WSW 4.6 mph - N/A   Overcast
10:54 AM 57.9 °F - 46.9 °F 67% 30.23 in 10.0 mi Calm Calm - N/A   Mostly Cloudy
11:54 AM 60.1 °F - 45.0 °F 57% 30.20 in 10.0 mi South 6.9 mph - N/A   Mostly Cloudy
12:54 PM 61.0 °F - 44.1 °F 54% 30.17 in 10.0 mi SSW 5.8 mph - N/A   Scattered Clouds
1:54 PM 60.1 °F - 44.1 °F 55% 30.15 in 10.0 mi SSW 9.2 mph - N/A   Mostly Cloudy
2:54 PM 61.0 °F - 45.0 °F 56% 30.13 in 10.0 mi SSW 6.9 mph - N/A   Scattered Clouds
3:54 PM 59.0 °F - 46.0 °F 62% 30.12 in 10.0 mi SW 5.8 mph - N/A   Partly Cloudy
5:54 PM 46.9 °F - 42.1 °F 83% 30.10 in 10.0 mi East 4.6 mph - N/A   Clear
6:54 PM 46.9 °F - 42.1 °F 83% 30.10 in 10.0 mi ENE 3.5 mph - N/A   Clear
7:54 PM 44.1 °F 41.5 °F 41.0 °F 89% 30.09 in 10.0 mi ESE 4.6 mph - N/A   Clear
8:54 PM 42.1 °F 40.2 °F 39.0 °F 89% 30.10 in 10.0 mi East 3.5 mph - N/A   Clear
9:54 PM 43.0 °F - 39.9 °F 89% 30.09 in 10.0 mi Calm Calm - N/A   Clear
10:54 PM 39.9 °F 37.8 °F 37.9 °F 93% 30.07 in 10.0 mi NNW 3.5 mph - N/A   Clear
11:54 PM 43.0 °F 40.3 °F 39.9 °F 89% 30.06 in 10.0 mi NNE 4.6 mph - N/A   Clear